Weather in Gold Coast

Australia     28°00′05″S   153°21′48″E
temp.,
°C
wind,
m/s
gust,
m/s
humid.,
%
clouds,
%
prec.,
mm/h
press.,
hPa
HPBL,
m
23 april, fri
fri2301:00+12w2254100 0.0 101637
04:00+9sw22560 0.0 101627
07:00+10sw11550 0.0 101837
10:00+20n01320 0.0 1018957
13:00+22n22300 0.0 10161603
16:00+19ene22520 0.0 1016497
19:00+13sse11830 0.0 101917
22:00+12ssw21820 0.0 102022
24 april, sat
sat2401:00+11ssw21830 0.0 102023
04:00+11ssw11840 0.0 102020
07:00+13sw11790 0.0 102232
10:00+21ene11480 0.0 10221144
13:00+22ne22441 0.0 10191703
16:00+20ene236022 0.0 1020606
19:00+14sse118826 0.0 102216
22:00+13ssw21934 0.0 102329
25 april, sun
sun2501:00+13sw219337 0.0 102227
04:00+12sw1194100 0.0 102118
07:00+14sw11850 0.0 102344
10:00+22ne11520 0.0 10221215
13:00+23ne234736 0.0 10201892
16:00+20ese246799 0.1 1020727
19:00+15sse24911 0.0 1022100
22:00+14s23910 0.0 102356
26 april, mon
mon2601:00+13ssw22910 0.0 102341
04:00+13ssw22900 0.0 102237
07:00+14ssw12860 0.0 102476
10:00+21se355413 0.0 10241494
13:00+21se345857 0.1 10221336
16:00+19se366816 0.8 1022814
19:00+14ssw23894 0.0 102454
22:00+14ssw239310 0.0 102465
27 april, tue
tue2701:00+15s139140 0.1 102484
04:00+14ssw229718 0.1 102347
07:00+15ssw149314 0.0 1025129
10:00+21sse475631 0.1 10241510
13:00+23se474720 0.0 10221929
16:00+21se46590 0.0 10221388
19:00+15ssw24850 0.0 102490
22:00+14ssw24896 0.0 102474